TimeMST,TemperatureF,Dew PointF,Humidity,Sea Level PressureIn,VisibilityMPH,Wind Direction,Wind SpeedMPH,Gust SpeedMPH,PrecipitationIn,Events,Conditions,WindDirDegrees,DateUTC
12:15 AM,14.0,12.2,93,29.77,-9999.0,North,-9999.0,-,N/A,,Unknown,0,2012-12-09 07:15:00
12:35 AM,14.0,10.4,86,29.79,-9999.0,North,-9999.0,-,N/A,,Unknown,0,2012-12-09 07:35:00
12:55 AM,14.0,10.4,86,29.78,-9999.0,North,-9999.0,-,N/A,,Unknown,0,2012-12-09 07:55:00
1:15 AM,14.0,10.4,86,29.78,-9999.0,North,-9999.0,-,N/A,,Unknown,0,2012-12-09 08:15:00
1:35 AM,12.2,10.4,92,29.78,-9999.0,North,-9999.0,-,N/A,,Unknown,0,2012-12-09 08:35:00
1:55 AM,12.2,10.4,92,29.76,-9999.0,North,-9999.0,-,N/A,,Unknown,0,2012-12-09 08:55:00
2:15 AM,12.2,10.4,92,29.78,-9999.0,North,-9999.0,-,N/A,,Unknown,0,2012-12-09 09:15:00
2:35 AM,12.2,10.4,92,29.78,-9999.0,North,-9999.0,-,N/A,,Unknown,0,2012-12-09 09:35:00
2:55 AM,12.2,10.4,92,29.79,-9999.0,North,-9999.0,-,N/A,,Unknown,0,2012-12-09 09:55:00
3:15 AM,12.2,8.6,85,29.79,-9999.0,North,-9999.0,-,N/A,,Unknown,0,2012-12-09 10:15:00
3:35 AM,12.2,8.6,85,29.80,-9999.0,North,-9999.0,-,N/A,,Mostly Cloudy,0,2012-12-09 10:35:00
3:55 AM,12.2,8.6,85,29.80,-9999.0,North,-9999.0,-,N/A,,Mostly Cloudy,0,2012-12-09 10:55:00
4:15 AM,10.4,8.6,92,29.80,-9999.0,North,-9999.0,-,N/A,,Unknown,0,2012-12-09 11:15:00
4:35 AM,10.4,6.8,85,29.78,-9999.0,North,-9999.0,-,N/A,,Unknown,0,2012-12-09 11:35:00
4:55 AM,10.4,6.8,85,29.80,-9999.0,North,-9999.0,-,N/A,,Unknown,0,2012-12-09 11:55:00
5:15 AM,8.6,5.0,85,29.82,-9999.0,North,-9999.0,-,N/A,,Unknown,0,2012-12-09 12:15:00
5:35 AM,8.6,5.0,85,29.82,-9999.0,North,-9999.0,-,N/A,,Unknown,0,2012-12-09 12:35:00
5:55 AM,8.6,5.0,85,29.82,-9999.0,North,-9999.0,-,N/A,,Unknown,0,2012-12-09 12:55:00
6:15 AM,8.6,5.0,85,29.83,-9999.0,North,-9999.0,-,N/A,,Unknown,0,2012-12-09 13:15:00
6:35 AM,8.6,3.2,79,29.82,-9999.0,North,-9999.0,-,N/A,,Unknown,0,2012-12-09 13:35:00
6:55 AM,8.6,3.2,79,29.83,-9999.0,North,-9999.0,-,N/A,,Unknown,0,2012-12-09 13:55:00
7:15 AM,6.8,3.2,85,29.83,-9999.0,North,-9999.0,-,N/A,,Unknown,0,2012-12-09 14:15:00
7:35 AM,6.8,3.2,85,29.85,-9999.0,North,-9999.0,-,N/A,,Unknown,0,2012-12-09 14:35:00
7:55 AM,5.0,3.2,92,29.85,-9999.0,North,-9999.0,-,N/A,,Unknown,0,2012-12-09 14:55:00
8:15 AM,5.0,1.4,85,29.85,-9999.0,North,-9999.0,-,N/A,,Unknown,0,2012-12-09 15:15:00
8:35 AM,5.0,1.4,85,29.85,-9999.0,North,-9999.0,-,N/A,,Unknown,0,2012-12-09 15:35:00
8:55 AM,5.0,1.4,85,29.85,-9999.0,North,-9999.0,-,N/A,,Unknown,0,2012-12-09 15:55:00
9:15 AM,5.0,1.4,85,29.86,-9999.0,North,-9999.0,-,N/A,,Unknown,0,2012-12-09 16:15:00
9:35 AM,5.0,1.4,85,29.87,-9999.0,North,-9999.0,-,N/A,,Unknown,0,2012-12-09 16:35:00
9:55 AM,3.2,-0.4,85,29.87,-9999.0,North,-9999.0,-,N/A,,Unknown,0,2012-12-09 16:55:00
10:15 AM,3.2,-0.4,85,29.87,-9999.0,North,-9999.0,-,N/A,,Unknown,0,2012-12-09 17:15:00
10:35 AM,3.2,-0.4,85,29.88,-9999.0,North,-9999.0,-,N/A,,Mostly Cloudy,0,2012-12-09 17:35:00
10:55 AM,3.2,-0.4,85,29.87,-9999.0,North,-9999.0,-,N/A,,Overcast,0,2012-12-09 17:55:00
11:15 AM,1.4,-2.2,85,29.87,-9999.0,North,-9999.0,-,N/A,,Overcast,0,2012-12-09 18:15:00
11:35 AM,3.2,-2.2,78,29.86,-9999.0,North,-9999.0,-,N/A,,Overcast,0,2012-12-09 18:35:00
11:55 AM,1.4,-4.0,78,29.86,-9999.0,North,-9999.0,-,N/A,,Overcast,0,2012-12-09 18:55:00
12:15 PM,1.4,-4.0,78,29.85,-9999.0,North,-9999.0,-,N/A,,Overcast,0,2012-12-09 19:15:00
12:35 PM,-0.4,-4.0,85,29.85,-9999.0,North,-9999.0,-,N/A,,Overcast,0,2012-12-09 19:35:00
12:55 PM,-0.4,-4.0,85,29.84,-9999.0,North,-9999.0,-,N/A,,Overcast,0,2012-12-09 19:55:00
1:15 PM,1.4,-4.0,78,29.84,-9999.0,North,-9999.0,-,N/A,,Overcast,0,2012-12-09 20:15:00
1:35 PM,-0.4,-5.8,78,29.84,-9999.0,North,-9999.0,-,N/A,,Overcast,0,2012-12-09 20:35:00
1:55 PM,-0.4,-4.0,85,29.85,-9999.0,North,-9999.0,-,N/A,,Overcast,0,2012-12-09 20:55:00
2:15 PM,-0.4,-4.0,85,29.86,-9999.0,North,-9999.0,-,N/A,,Overcast,0,2012-12-09 21:15:00
2:35 PM,-0.4,-4.0,85,29.87,-9999.0,North,-9999.0,-,N/A,,Overcast,0,2012-12-09 21:35:00
2:55 PM,-0.4,-5.8,78,29.88,-9999.0,North,-9999.0,-,N/A,,Overcast,0,2012-12-09 21:55:00
3:15 PM,-0.4,-5.8,78,29.88,-9999.0,North,-9999.0,-,N/A,,Overcast,0,2012-12-09 22:15:00
3:35 PM,-2.2,-5.8,85,29.89,-9999.0,North,-9999.0,-,N/A,,Overcast,0,2012-12-09 22:35:00
3:55 PM,-2.2,-7.6,78,29.90,-9999.0,North,-9999.0,-,N/A,,Overcast,0,2012-12-09 22:55:00
4:15 PM,-4.0,-7.6,85,29.91,-9999.0,North,-9999.0,-,N/A,,Overcast,0,2012-12-09 23:15:00
4:35 PM,-4.0,-7.6,85,29.91,-9999.0,North,-9999.0,-,N/A,,Overcast,0,2012-12-09 23:35:00
4:55 PM,-4.0,-9.4,78,29.92,-9999.0,North,-9999.0,-,N/A,,Overcast,0,2012-12-09 23:55:00
5:15 PM,-5.8,-9.4,84,29.93,-9999.0,North,-9999.0,-,N/A,,Unknown,0,2012-12-10 00:15:00
5:35 PM,-5.8,-11.2,77,29.94,-9999.0,North,-9999.0,-,N/A,,Overcast,0,2012-12-10 00:35:00
5:55 PM,-5.8,-11.2,77,29.94,-9999.0,North,-9999.0,-,N/A,,Overcast,0,2012-12-10 00:55:00
6:15 PM,-5.8,-13.0,71,29.95,-9999.0,North,-9999.0,-,N/A,,Scattered Clouds,0,2012-12-10 01:15:00
6:35 PM,-7.6,-13.0,77,29.95,-9999.0,North,-9999.0,-,N/A,,Clear,0,2012-12-10 01:35:00
6:55 PM,-7.6,-13.0,77,29.96,-9999.0,North,-9999.0,-,N/A,,Clear,0,2012-12-10 01:55:00
7:15 PM,-7.6,-14.8,71,29.96,-9999.0,North,-9999.0,-,N/A,,Clear,0,2012-12-10 02:15:00
7:35 PM,-7.6,-14.8,71,29.96,-9999.0,North,-9999.0,-,N/A,,Clear,0,2012-12-10 02:35:00
7:55 PM,-9.4,-14.8,77,29.96,-9999.0,North,-9999.0,-,N/A,,Clear,0,2012-12-10 02:55:00
8:15 PM,-9.4,-14.8,77,29.96,-9999.0,North,-9999.0,-,N/A,,Clear,0,2012-12-10 03:15:00
8:35 PM,-9.4,-14.8,77,29.96,-9999.0,North,-9999.0,-,N/A,,Clear,0,2012-12-10 03:35:00
8:55 PM,-7.6,-14.8,71,29.96,-9999.0,North,-9999.0,-,N/A,,Clear,0,2012-12-10 03:55:00
9:15 PM,-9.4,-14.8,77,29.95,-9999.0,North,-9999.0,-,N/A,,Clear,0,2012-12-10 04:15:00
9:35 PM,-9.4,-14.8,77,29.95,-9999.0,North,-9999.0,-,N/A,,Clear,0,2012-12-10 04:35:00
9:55 PM,-9.4,-14.8,77,29.94,-9999.0,North,-9999.0,-,N/A,,Clear,0,2012-12-10 04:55:00
10:15 PM,-9.4,-16.6,71,29.94,-9999.0,North,-9999.0,-,N/A,,Clear,0,2012-12-10 05:15:00
10:35 PM,-11.2,-16.6,77,29.92,-9999.0,North,-9999.0,-,N/A,,Clear,0,2012-12-10 05:35:00
10:55 PM,-9.4,-16.6,71,29.92,-9999.0,North,-9999.0,-,N/A,,Scattered Clouds,0,2012-12-10 05:55:00
11:15 PM,-9.4,-14.8,77,29.92,-9999.0,North,-9999.0,-,N/A,,Mostly Cloudy,0,2012-12-10 06:15:00
11:35 PM,-9.4,-14.8,77,29.92,-9999.0,North,-9999.0,-,N/A,,Mostly Cloudy,0,2012-12-10 06:35:00
11:55 PM,-9.4,-14.8,77,29.91,-9999.0,North,-9999.0,-,N/A,,Scattered Clouds,0,2012-12-10 06:55:00